(110587) = 2001 TT122

Discovered at Socorro on 2001-10-15 by LINEAR.

Orbit

Orbit type: Main Belt

Note: WebGL enabled browser required.

epoch2024-03-31.0
epoch JD2460400.5
perihelion date2022-03-10.63483
perihelion JD2459649.13483
argument of perihelion (°)340.83915
ascending node (°)10.82439
inclination (°)5.25428
eccentricity0.2831254
perihelion distance (AU)1.8547569
Tisserand w.r.t. Jupiter3.4
ΔV w.r.t. Earth (km/sec)8.7
semimajor axis (AU)2.5872824
mean anomaly (°)177.94638
mean daily motion (°/day)0.23683080
aphelion distance (AU)3.320
period (years)4.16
P-vector [x]0.98917473
P-vector [y]-0.11982301
P-vector [z]-0.08471013
Q-vector [x]0.14573124
Q-vector [y]0.86980209
Q-vector [z]0.47138809
absolute magnitude15.24
phase slope0.15
uncertainty0
referenceMPEC 2024-F14
observations used1056
oppositions17
arc length (days)8713
first opposition used2000
last opposition used2024
residual rms (arc-secs)0.69
perturbers coarse indicatorM-v
perturbers precise indicator003Ek
first observation date used2000-05-09.0
last observation date used2024-03-17.0
computer nameMPCLINUX
JD of orbit computation2456966.765290
perihelion JD uncertainty (days)2.8597E-05
argument of perihelion uncertainty (°)3.5463E-05
ascending node uncertainty (°)3.4515E-05
inclination uncertainty (°)5.1487E-06
eccentricity uncertainty 6.1817E-08
perihelion distance uncertainty (AU)1.6990E-07
Minimum Orbit Intersection Distances (in AU)
for orbit epoch: 2460400.5, reference: E2024-GH2
Mercury1.47692
Venus1.12815
Earth0.85031
Mars0.46709
Jupiter2.10831
Saturn6.04195
Uranus15.1235
Neptune27.1791

Observations

1065 total observations over interval: 2000 05 09.35183 – 2024 03 17.455394
These data are available for download (format description).

Date (UT) J2000 RA J2000 Dec Magn Location Ref
2000 05 09.35183 15 28 08.32 -24 35 03.9 18.5   704 – Lincoln Laboratory ETS, New Mexico MPS 106709
2000 05 09.36431 15 28 07.46 -24 35 04.5 18.6   704 – Lincoln Laboratory ETS, New Mexico MPS 106709
2000 05 09.37667 15 28 06.73 -24 35 03.2 18.3   704 – Lincoln Laboratory ETS, New Mexico MPS 106709
2000 05 09.39012 15 28 05.89 -24 35 01.2 18.4   704 – Lincoln Laboratory ETS, New Mexico MPS 106709
2000 05 09.40358 15 28 05.05 -24 34 59.9 18.6   704 – Lincoln Laboratory ETS, New Mexico MPS 106709
2001 08 16.40191 03 59 45.66 +22 34 54.8 19.2   704 – Lincoln Laboratory ETS, New Mexico MPS 44283
2001 08 16.41385 03 59 46.94 +22 35 00.5 19.4   704 – Lincoln Laboratory ETS, New Mexico MPS 44283
2001 08 16.42579 03 59 47.95 +22 35 05.5 19.4   704 – Lincoln Laboratory ETS, New Mexico MPS 44283
2001 08 16.43772 03 59 49.25 +22 35 11.3 19.0   704 – Lincoln Laboratory ETS, New Mexico MPS 44283
2001 08 16.45003 03 59 50.42 +22 35 16.9 19.4   704 – Lincoln Laboratory ETS, New Mexico MPS 44283
2001 09 15.47716 04 41 19.63 +25 46 55.7 19.2   644 – Palomar Mountain/NEAT MPS 44283
2001 09 15.48758 04 41 20.27 +25 46 58.9 19.1   644 – Palomar Mountain/NEAT MPS 44283
2001 09 15.49867 04 41 20.95 +25 47 02.6 19.0   644 – Palomar Mountain/NEAT MPS 44283
2001 10 14.33282 04 57 57.68 +28 05 29.1 19.3   704 – Lincoln Laboratory ETS, New Mexico MPS 44283
2001 10 14.34877 04 57 57.66 +28 05 33.7 20.1   704 – Lincoln Laboratory ETS, New Mexico MPS 44283
2001 10 14.36451 04 57 57.65 +28 05 39.4 20.0   704 – Lincoln Laboratory ETS, New Mexico MPS 44283
2001 10 14.38029 04 57 57.67 +28 05 43.5 19.6   704 – Lincoln Laboratory ETS, New Mexico MPS 44283
2001 10 14.39605 04 57 57.65 +28 05 47.8 19.0   704 – Lincoln Laboratory ETS, New Mexico MPS 44283
2001 10 15.33003 04 57 59.45 +28 09 37.2 18.9   704 – Lincoln Laboratory ETS, New Mexico MPS 39531
2001 10 15.34581 04 57 59.42 +28 09 41.3 19.5   704 – Lincoln Laboratory ETS, New Mexico MPS 39531
2001 10 15.36158 04 57 59.43 +28 09 45.5 19.4   704 – Lincoln Laboratory ETS, New Mexico MPS 39531
2001 10 15.37733 04 57 59.39 +28 09 50.1 19.7   704 – Lincoln Laboratory ETS, New Mexico MPS 39531
2001 10 15.39311 04 57 59.25 +28 09 54.2 19.4   704 – Lincoln Laboratory ETS, New Mexico MPS 39531
2001 10 15.39820 04 57 59.37 +28 09 53.8 18.9   704 – Lincoln Laboratory ETS, New Mexico MPS 39531
2001 10 15.41434 04 57 59.36 +28 09 58.3 19.6   704 – Lincoln Laboratory ETS, New Mexico MPS 39531
2001 10 15.42992 04 57 59.32 +28 10 01.4 18.9   704 – Lincoln Laboratory ETS, New Mexico MPS 39531
2001 10 15.44555 04 57 59.25 +28 10 05.2 19.3   704 – Lincoln Laboratory ETS, New Mexico MPS 39531
2001 10 15.46120 04 57 59.25 +28 10 09.7 19.0   704 – Lincoln Laboratory ETS, New Mexico MPS 39531
2001 10 18.43037 04 57 49.24 +28 22 02.9 19.2   704 – Lincoln Laboratory ETS, New Mexico MPS 39531
2001 10 18.44721 04 57 49.02 +28 22 06.3 19.4   704 – Lincoln Laboratory ETS, New Mexico MPS 39531
2001 10 18.46313 04 57 48.91 +28 22 10.5 18.8   704 – Lincoln Laboratory ETS, New Mexico MPS 39531
2001 10 21.43061 04 57 17.42 +28 33 28.0 20.0   704 – Lincoln Laboratory ETS, New Mexico MPS 44283
2001 10 21.46383 04 57 16.83 +28 33 34.7 20.0   704 – Lincoln Laboratory ETS, New Mexico MPS 44283
2001 10 21.48043 04 57 16.52 +28 33 39.7 19.0   704 – Lincoln Laboratory ETS, New Mexico MPS 44283
2001 11 10.44227 04 44 54.86 +29 28 29.5 17.8   704 – Lincoln Laboratory ETS, New Mexico MPS 40903
2001 11 10.47291 04 44 52.97 +29 28 30.8 18.4   704 – Lincoln Laboratory ETS, New Mexico MPS 40903
2001 11 10.50296 04 44 51.24 +29 28 34.5 18.1   704 – Lincoln Laboratory ETS, New Mexico MPS 40903
2001 11 11.35146 04 44 02.31 +29 29 49.7 18.7   704 – Lincoln Laboratory ETS, New Mexico MPS 40903
2001 11 11.35435 04 44 02.11 +29 29 50.2 18.0   704 – Lincoln Laboratory ETS, New Mexico MPS 40903
2001 11 11.36612 04 44 01.41 +29 29 51.1 19.0   704 – Lincoln Laboratory ETS, New Mexico MPS 40903
2001 11 11.36899 04 44 01.22 +29 29 51.5 18.3   704 – Lincoln Laboratory ETS, New Mexico MPS 40903
2001 11 11.38075 04 44 00.48 +29 29 52.3 18.8   704 – Lincoln Laboratory ETS, New Mexico MPS 40903
2001 11 11.38363 04 44 00.31 +29 29 52.5 18.5   704 – Lincoln Laboratory ETS, New Mexico MPS 40903
2001 11 11.39539 04 43 59.60 +29 29 53.3 18.6   704 – Lincoln Laboratory ETS, New Mexico MPS 40903
2001 11 11.39827 04 43 59.40 +29 29 53.9 18.3   704 – Lincoln Laboratory ETS, New Mexico MPS 40903
2001 11 11.41002 04 43 58.73 +29 29 54.4 18.8   704 – Lincoln Laboratory ETS, New Mexico MPS 40903
2001 11 11.41291 04 43 58.51 +29 29 55.1 18.1   704 – Lincoln Laboratory ETS, New Mexico MPS 40903
2001 11 21.29777 04 33 15.51 +29 36 10.1 17.7   704 – Lincoln Laboratory ETS, New Mexico MPS 54999
2001 11 21.31271 04 33 14.43 +29 36 09.7 17.9   704 – Lincoln Laboratory ETS, New Mexico MPS 54999
2001 11 21.32884 04 33 13.26 +29 36 09.7 17.9   704 – Lincoln Laboratory ETS, New Mexico MPS 54999
2001 11 21.34405 04 33 12.17 +29 36 09.3 17.8   704 – Lincoln Laboratory ETS, New Mexico MPS 54999
2001 11 21.35900 04 33 11.07 +29 36 09.2 17.8   704 – Lincoln Laboratory ETS, New Mexico MPS 54999
2001 11 24.22507 04 29 50.08 +29 35 03.1 17.8   704 – Lincoln Laboratory ETS, New Mexico MPS 54999
2001 11 24.23960 04 29 49.01 +29 35 02.7 18.3   704 – Lincoln Laboratory ETS, New Mexico MPS 55000
2001 11 24.25537 04 29 47.84 +29 35 02.1 18.0   704 – Lincoln Laboratory ETS, New Mexico MPS 55000
2001 11 24.26989 04 29 46.80 +29 35 01.4 18.0   704 – Lincoln Laboratory ETS, New Mexico MPS 55000
2001 11 24.28440 04 29 45.71 +29 35 01.1 17.9   704 – Lincoln Laboratory ETS, New Mexico MPS 55000
2001 12 10.23603 04 11 39.42 +29 08 18.4 18.0   704 – Lincoln Laboratory ETS, New Mexico MPS 44283
2001 12 10.25164 04 11 38.23 +29 08 17.0 18.1   704 – Lincoln Laboratory ETS, New Mexico MPS 44283
2001 12 10.26715 04 11 37.31 +29 08 15.1 17.9   704 – Lincoln Laboratory ETS, New Mexico MPS 44283
2001 12 10.28258 04 11 36.32 +29 08 12.7 17.9   704 – Lincoln Laboratory ETS, New Mexico MPS 44283
2001 12 10.29877 04 11 35.28 +29 08 10.0 17.7   704 – Lincoln Laboratory ETS, New Mexico MPS 44283
2001 12 17.22916 04 05 07.02 +28 49 03.6 18.1   704 – Lincoln Laboratory ETS, New Mexico MPS 44283
2001 12 17.24563 04 05 06.17 +28 49 00.6 18.3   704 – Lincoln Laboratory ETS, New Mexico MPS 44283
2001 12 17.26114 04 05 05.36 +28 48 57.7 18.2   704 – Lincoln Laboratory ETS, New Mexico MPS 44283
2001 12 17.27698 04 05 04.55 +28 48 55.0 18.1   704 – Lincoln Laboratory ETS, New Mexico MPS 44284
2001 12 17.29264 04 05 03.74 +28 48 52.2 18.7   704 – Lincoln Laboratory ETS, New Mexico MPS 44284
2001 12 21.21457 04 02 01.66 +28 37 19.4 17.9   704 – Lincoln Laboratory ETS, New Mexico MPS 46633
2001 12 21.22946 04 02 00.96 +28 37 16.5 17.8   704 – Lincoln Laboratory ETS, New Mexico MPS 46633
2001 12 21.24434 04 02 00.27 +28 37 13.9 18.1   704 – Lincoln Laboratory ETS, New Mexico MPS 46633
2001 12 21.25924 04 01 59.62 +28 37 11.7 18.3   704 – Lincoln Laboratory ETS, New Mexico MPS 46633
2002 02 06.16178 04 05 27.46 +27 15 51.6 19.2   704 – Lincoln Laboratory ETS, New Mexico MPS 55000
2002 02 06.19160 04 05 28.81 +27 15 51.3 19.9   704 – Lincoln Laboratory ETS, New Mexico MPS 55000
2002 02 06.20656 04 05 29.49 +27 15 51.3 19.4   704 – Lincoln Laboratory ETS, New Mexico MPS 55000
2002 02 06.22138 04 05 30.10 +27 15 51.3 19.2   704 – Lincoln Laboratory ETS, New Mexico MPS 55000
2004 04 13.45734 14 38 19.47 -18 59 08.3 19.4   644 – Palomar Mountain/NEAT MPS 106189
2004 04 13.46741 14 38 19.00 -18 59 07.0 19.6   644 – Palomar Mountain/NEAT MPS 106189
2004 04 13.47736 14 38 18.47 -18 59 05.8 19.5   644 – Palomar Mountain/NEAT MPS 106189
2004 04 20.35941 14 32 10.16 -18 43 26.8 19.3   704 – Lincoln Laboratory ETS, New Mexico MPS 106189
2004 04 20.37014 14 32 09.50 -18 43 24.9 19.7   704 – Lincoln Laboratory ETS, New Mexico MPS 106189
2004 04 20.38098 14 32 08.96 -18 43 23.8 19.4   704 – Lincoln Laboratory ETS, New Mexico MPS 106189
2004 04 20.39162 14 32 08.33 -18 43 21.6 19.6   704 – Lincoln Laboratory ETS, New Mexico MPS 106189
2004 04 25.29695 14 27 27.18 -18 29 33.8 19.1   704 – Lincoln Laboratory ETS, New Mexico MPS 106189
